Wind_Speed
11 11 12 12 12 12 12 12 12 12 11 12 13 14 14 14 14 14 14 14 14 14 15 15 15 15 15 16 16 16 16 17 17 17 17 17 18 18 17 18 18 18 17
11 11 12 12 12 12 13 14 14 13 13 14 14 15 15 15 15 15 14 15 15 16 16 16 17 17 17 17 18 18 18 18 18 18 18 18 18 18 19 19 19 19 18
12 12 12 14 14 14 14 14 14 14 15 15 16 16 16 16 16 16 16 16 16 17 17 18 18 18 18 18 19 19 19 18 18 18 18 19 19 19 19 19 19 19 18
14 14 14 14 15 15 15 15 16 16 17 17 17 17 17 17 17 17 17 17 18 18 18 18 19 19 19 19 20 20 20 20 19 19 19 20 19 19 20 20 19 19 18
14 14 14 15 15 16 16 17 17 18 18 18 18 19 19 19 19 19 19 20 19 20 20 20 20 20 21 21 21 21 21 21 21 21 21 20 20 20 20 21 20 20 20
16 15 16 16 17 18 18 19 19 20 20 20 20 20 20 20 21 21 21 21 21 21 21 21 22 22 23 23 23 23 23 23 22 22 21 22 22 22 22 22 21 21 20
18 18 18 18 19 20 20 21 21 22 22 21 21 21 21 22 22 23 23 23 22 23 23 24 24 24 24 24 24 24 24 24 24 24 23 23 23 23 23 22 23 23 22
21 21 21 21 22 22 23 23 24 24 23 23 23 23 23 23 24 24 25 25 25 25 25 26 26 26 26 25 25 25 25 25 25 25 24 24 24 24 24 24 24 24 23
22 23 23 23 24 24 25 25 26 25 25 25 25 25 25 25 26 26 26 27 27 26 27 27 27 27 27 27 27 26 26 26 27 27 27 26 26 25 25 25 26 25 25
24 25 25 25 26 27 27 27 28 28 27 27 27 27 27 27 27 27 28 28 28 28 28 28 28 28 28 28 28 28 28 27 27 27 27 27 27 27 26 26 27 26 25
26 27 27 27 27 28 29 30 30 29 28 28 28 28 28 28 28 28 29 29 30 29 29 29 29 29 29 29 29 29 28 28 28 27 27 27 27 27 27 27 27 27 26
27 27 28 28 29 30 31 31 31 31 31 30 30 29 30 30 30 30 31 32 32 31 31 31 31 30 30 30 30 30 29 29 28 27 27 27 27 27 27 27 27 27 27
28 27 28 29 30 31 31 32 33 32 32 31 31 31 31 31 32 33 33 34 34 34 33 34 33 32 32 31 30 30 30 29 29 28 27 27 27 27 28 28 28 28 28
29 29 29 29 30 31 32 33 33 32 32 32 33 33 33 33 34 34 35 35 36 35 35 35 35 34 33 32 31 30 30 29 28 28 28 28 28 29 29 29 29 28 29
29 30 30 31 32 33 33 32 32 33 33 33 34 34 35 35 35 35 36 36 36 36 36 36 36 35 34 33 31 31 29 29 29 29 29 30 30 30 30 30 30 30 30
31 31 32 32 33 34 33 33 33 34 34 34 34 35 35 35 35 35 36 36 36 36 36 36 36 36 35 34 32 31 30 29 29 29 30 30 30 30 30 30 30 30 31
32 32 33 33 34 34 34 34 34 35 35 35 35 35 36 36 36 36 36 36 35 35 36 36 36 36 34 32 31 31 30 30 31 31 31 31 31 31 30 31 31 31 31
33 34 35 35 35 34 35 35 35 36 36 36 36 36 37 37 37 37 37 36 35 35 35 35 35 34 33 33 32 31 32 32 32 32 31 31 31 31 31 31 31 31 31
34 35 35 35 35 34 35 35 36 36 36 36 37 38 38 37 36 36 36 34 34 34 34 34 34 34 33 32 32 32 32 32 32 31 32 33 33 33 33 33 32 32 32
34 34 34 34 35 35 35 36 36 36 37 37 37 37 37 37 36 36 36 34 34 33 33 33 33 33 33 32 32 32 33 33 33 33 33 34 34 34 34 34 33 33 32
35 34 34 34 35 35 36 36 36 37 37 37 36 36 36 36 36 36 35 34 33 33 33 33 33 32 32 32 32 32 33 33 33 33 33 34 34 34 34 34 34 33 33
34 34 34 35 35 35 35 36 37 37 36 36 35 35 35 35 35 35 34 33 33 33 34 34 33 32 31 31 31 32 32 33 33 33 33 33 33 33 33 33 34 33 33
34 34 34 35 36 36 36 36 36 36 35 34 34 34 34 34 34 33 33 34 33 33 33 33 33 31 31 31 31 31 32 33 34 34 34 33 33 33 34 34 34 33 33
34 34 34 34 35 36 36 35 35 35 35 34 34 34 34 33 33 33 33 33 31 31 31 32 31 31 32 32 32 32 33 34 34 35 34 34 34 34 34 34 34 34 34
32 32 33 34 34 34 34 33 33 33 34 33 33 33 33 33 33 33 32 30 30 30 31 31 31 32 33 32 33 33 35 35 35 35 34 34 34 35 35 34 34 34 34
32 32 32 32 32 32 32 33 33 33 33 33 32 31 32 33 33 33 32 31 31 31 31 31 31 31 32 32 33 34 34 34 34 34 35 34 34 34 34 33 33 34 34
Wind_Direction
331 335 336 337 338 339 340 340 341 338 337 337 337 337 337 336 335 335 334 335 335 335 336 336 335 332 330 327 325 325 324 324 324 324 323 322 321 320 319 317 315 313 311
323 326 328 330 332 333 336 336 336 334 332 331 333 334 334 334 332 331 330 328 330 331 331 332 332 329 326 325 324 323 321 320 321 321 321 321 319 319 318 317 316 313 311
319 321 323 326 329 329 333 331 330 329 330 328 329 330 330 329 328 325 324 325 325 325 326 327 328 329 326 323 322 322 321 320 320 320 319 319 319 317 317 317 316 313 311
314 316 317 321 324 328 327 326 326 326 326 326 325 324 325 325 324 322 322 322 323 321 322 322 323 325 325 322 321 321 321 321 320 320 319 319 319 318 317 316 315 314 311
309 312 313 317 320 321 321 321 321 320 321 321 322 322 321 322 321 319 318 318 319 319 317 318 319 319 319 319 318 316 316 316 317 316 315 315 317 317 316 314 313 312 312
304 306 309 312 314 316 317 317 316 316 316 315 315 316 318 319 319 317 316 315 316 316 314 314 314 315 314 315 314 313 313 313 314 315 314 315 316 316 316 314 314 315 313
298 302 303 305 308 311 312 311 311 310 310 310 310 310 312 313 314 315 314 312 312 312 311 310 311 311 311 311 310 309 309 310 310 311 312 313 313 313 312 311 311 312 312
294 299 301 302 304 306 307 308 307 306 306 306 306 306 306 307 308 310 311 311 309 309 308 308 307 308 310 311 311 310 308 306 306 306 307 309 311 310 309 309 309 309 309
291 296 298 299 301 302 302 303 303 302 302 303 304 303 303 303 305 306 307 308 308 307 306 304 305 306 306 306 306 306 304 304 303 302 303 304 305 307 306 305 305 305 305
288 292 294 296 298 300 300 300 302 300 301 302 304 303 302 301 303 305 305 305 305 305 305 303 303 304 305 306 306 304 303 303 301 300 299 300 302 303 303 302 302 303 302
285 288 290 292 296 298 299 299 300 300 300 300 301 301 300 301 301 302 303 303 303 303 304 303 302 302 303 304 304 303 303 302 301 300 300 300 301 300 300 301 301 302 300
286 288 290 291 293 296 297 298 299 300 300 299 298 298 297 298 299 300 300 300 300 301 302 303 301 300 301 301 302 303 303 302 302 302 301 301 301 299 298 299 300 300 299
285 287 289 290 292 294 296 298 298 298 298 298 298 298 297 296 297 297 298 299 300 299 300 301 299 298 299 300 299 301 302 301 300 300 301 301 301 300 298 297 297 296 296
284 286 288 290 292 293 295 297 298 298 297 297 298 298 297 296 295 295 296 297 298 298 298 299 300 299 298 299 298 298 297 298 299 300 300 300 300 300 298 297 296 294 295
285 287 288 290 291 293 295 296 296 297 297 298 298 297 297 297 297 296 297 296 296 296 296 297 297 297 297 296 295 296 294 294 296 298 298 298 298 298 298 297 296 295 295
283 286 288 290 292 294 295 295 296 297 298 299 298 299 299 299 298 298 298 297 296 296 296 297 296 297 298 297 296 295 294 296 298 298 299 301 300 299 299 298 296 295 295
283 285 286 289 292 293 294 295 295 296 296 297 298 298 299 298 298 299 298 297 296 295 296 296 296 297 297 296 296 296 297 297 298 299 299 299 299 299 299 299 299 297 296
281 283 285 288 290 291 293 294 294 295 295 295 296 296 297 297 297 298 298 297 297 297 297 297 297 297 295 295 296 296 297 299 300 299 299 299 299 299 298 299 298 298 297
281 284 286 288 289 290 293 294 295 296 296 295 294 294 295 295 295 295 296 297 298 298 298 297 297 296 295 296 297 298 299 299 299 297 299 300 299 299 298 298 297 297 296
281 285 287 288 288 290 292 293 295 295 296 296 295 295 295 295 295 295 296 296 297 298 298 298 297 296 296 297 297 298 299 299 298 298 299 299 299 298 299 298 296 296 296
281 284 286 288 289 291 292 294 295 296 296 296 296 296 296 296 295 295 295 296 296 296 296 297 297 296 296 296 297 298 299 300 299 299 299 299 298 298 297 297 296 295 294
280 282 285 287 289 290 292 294 294 295 295 295 296 297 296 296 296 295 295 296 296 296 295 295 294 294 295 296 297 297 298 299 299 300 300 300 299 298 297 297 296 295 294
279 281 284 287 289 290 291 293 294 294 294 295 296 298 298 297 297 297 296 296 296 296 295 294 295 295 297 297 297 298 298 298 299 299 300 300 299 298 297 296 295 294 294
280 283 285 287 289 290 291 292 293 293 294 294 296 298 299 299 299 298 296 295 295 296 296 297 297 297 297 298 299 299 299 299 299 298 297 299 298 298 298 297 296 296 295
279 283 286 288 289 291 292 294 295 296 295 295 296 296 297 298 299 299 297 296 296 297 297 298 297 297 297 297 299 299 299 299 299 299 299 299 298 297 297 297 297 298 297
279 283 286 288 289 290 293 295 296 298 298 298 297 297 298 298 298 299 298 296 297 298 298 298 299 300 300 300 301 301 301 300 299 299 299 298 298 298 296 295 295 295 295
Height
5910 5908 5907 5905 5903 5901 5900 5898 5897 5895 5894 5893 5891 5890 5888 5886 5883 5881 5879 5878 5876 5874 5871 5869 5866 5864 5862 5860 5857 5855 5853 5852 5849 5847 5845 5842 5840 5837 5835 5832 5830 5827 5825
5908 5907 5905 5903 5902 5901 5899 5897 5896 5894 5893 5891 5890 5888 5886 5884 5881 5879 5877 5875 5874 5872 5870 5867 5865 5862 5860 5858 5855 5853 5850 5848 5846 5844 5841 5839 5836 5834 5831 5829 5826 5823 5821
5906 5905 5903 5902 5901 5899 5898 5896 5894 5893 5891 5889 5888 5886 5884 5882 5879 5877 5875 5873 5871 5869 5867 5865 5862 5860 5857 5855 5852 5850 5847 5844 5842 5840 5838 5835 5833 5830 5828 5825 5822 5820 5818
5904 5903 5902 5900 5899 5897 5896 5894 5892 5891 5889 5887 5885 5883 5881 5879 5877 5875 5872 5870 5868 5866 5864 5862 5859 5857 5854 5851 5849 5846 5844 5841 5838 5836 5834 5832 5829 5826 5824 5821 5819 5816 5814
5902 5901 5899 5898 5897 5895 5894 5892 5890 5888 5886 5884 5882 5880 5878 5876 5874 5871 5869 5867 5865 5863 5860 5858 5855 5853 5850 5848 5845 5842 5840 5837 5835 5832 5830 5827 5825 5822 5819 5817 5814 5812 5809
5899 5898 5896 5895 5894 5892 5891 5889 5887 5885 5883 5881 5879 5877 5874 5872 5870 5868 5866 5863 5861 5859 5857 5854 5852 5849 5846 5843 5840 5838 5835 5833 5830 5827 5825 5823 5820 5817 5815 5812 5809 5807 5805
5895 5894 5893 5891 5890 5888 5887 5885 5883 5881 5879 5877 5875 5873 5871 5868 5866 5863 5861 5859 5857 5854 5852 5850 5847 5845 5842 5839 5836 5833 5831 5828 5825 5823 5820 5817 5815 5812 5809 5807 5804 5802 5799
5891 5890 5889 5887 5886 5884 5882 5880 5878 5876 5874 5872 5870 5868 5866 5864 5861 5859 5856 5854 5851 5849 5847 5844 5842 5839 5836 5833 5831 5828 5825 5822 5820 5817 5814 5812 5809 5806 5804 5801 5799 5796 5794
5886 5885 5883 5882 5880 5879 5877 5874 5872 5870 5868 5867 5865 5863 5861 5859 5856 5853 5850 5848 5845 5843 5841 5838 5836 5833 5830 5827 5825 5822 5819 5816 5813 5811 5808 5806 5803 5800 5798 5795 5793 5790 5788
5880 5879 5877 5876 5874 5872 5870 5868 5866 5864 5862 5860 5858 5856 5854 5852 5850 5847 5844 5842 5839 5837 5835 5832 5829 5827 5824 5821 5818 5815 5812 5809 5806 5804 5801 5799 5796 5794 5791 5789 5786 5784 5781
5873 5872 5871 5869 5867 5865 5863 5861 5859 5857 5855 5853 5851 5849 5847 5845 5843 5840 5837 5835 5832 5830 5827 5825 5822 5819 5817 5814 5811 5808 5805 5802 5799 5797 5794 5792 5789 5787 5784 5782 5779 5776 5774
5866 5865 5864 5862 5861 5859 5857 5854 5852 5849 5848 5846 5844 5842 5840 5838 5836 5833 5830 5827 5824 5822 5820 5817 5815 5812 5809 5806 5804 5801 5798 5795 5792 5789 5787 5784 5782 5779 5777 5775 5772 5769 5767
5859 5858 5857 5855 5853 5851 5849 5847 5844 5842 5840 5838 5835 5833 5832 5830 5827 5825 5822 5819 5816 5814 5811 5809 5807 5804 5801 5798 5796 5793 5790 5787 5784 5781 5779 5777 5774 5772 5769 5767 5765 5762 5760
5852 5851 5849 5848 5846 5844 5841 5839 5836 5834 5832 5829 5827 5825 5823 5821 5818 5815 5813 5810 5807 5805 5802 5800 5798 5795 5792 5790 5787 5785 5782 5779 5776 5774 5771 5769 5766 5764 5761 5758 5756 5753 5751
5844 5843 5841 5840 5838 5836 5834 5831 5829 5827 5824 5821 5818 5816 5813 5811 5808 5805 5803 5800 5798 5796 5793 5791 5789 5786 5784 5781 5778 5776 5773 5771 5768 5766 5763 5760 5758 5755 5753 5750 5747 5744 5742
5835 5834 5833 5831 5830 5828 5825 5823 5820 5818 5815 5813 5810 5807 5804 5801 5798 5795 5793 5790 5788 5786 5783 5781 5779 5776 5773 5771 5769 5766 5764 5762 5759 5757 5754 5751 5749 5746 5744 5741 5738 5735 5733
5827 5826 5825 5823 5821 5818 5816 5814 5812 5810 5807 5804 5801 5798 5795 5791 5788 5786 5783 5781 5778 5776 5773 5771 5768 5766 5763 5761 5760 5758 5756 5753 5750 5747 5745 5742 5740 5737 5734 5732 5729 5726 5723
5819 5817 5815 5814 5812 5810 5807 5805 5802 5800 5797 5795 5792 5789 5786 5783 5780 5777 5774 5772 5769 5766 5764 5761 5759 5756 5754 5752 5751 5749 5746 5744 5741 5738 5735 5733 5730 5728 5725 5722 5719 5717 5714
5810 5808 5806 5804 5802 5800 5798 5796 5793 5790 5787 5785 5782 5779 5776 5773 5770 5768 5765 5763 5760 5757 5755 5752 5749 5748 5746 5744 5742 5739 5737 5734 5731 5728 5725 5723 5720 5718 5715 5712 5710 5707 5704
5800 5799 5797 5795 5793 5791 5789 5786 5784 5781 5778 5775 5772 5769 5766 5763 5761 5758 5756 5753 5751 5748 5746 5743 5740 5738 5736 5734 5732 5730 5728 5725 5722 5720 5717 5714 5711 5708 5705 5702 5699 5697 5694
5791 5790 5788 5786 5784 5782 5780 5777 5774 5771 5768 5765 5762 5758 5755 5753 5751 5749 5746 5744 5741 5739 5736 5734 5732 5729 5727 5725 5723 5721 5718 5715 5713 5710 5707 5704 5701 5697 5694 5691 5688 5686 5683
5781 5780 5779 5777 5775 5773 5770 5768 5764 5761 5758 5755 5752 5750 5746 5743 5741 5739 5737 5734 5732 5729 5727 5725 5722 5720 5717 5714 5712 5710 5708 5706 5703 5700 5697 5693 5690 5687 5684 5681 5678 5675 5672
5771 5770 5769 5767 5765 5763 5760 5758 5755 5752 5749 5746 5743 5740 5738 5735 5732 5730 5727 5725 5723 5720 5718 5715 5713 5711 5708 5705 5703 5700 5698 5695 5692 5689 5686 5683 5680 5677 5674 5670 5667 5664 5660
5762 5761 5759 5757 5755 5753 5750 5748 5745 5742 5739 5737 5734 5731 5729 5726 5724 5721 5718 5715 5713 5711 5709 5706 5704 5701 5699 5696 5693 5691 5688 5685 5682 5678 5676 5672 5669 5667 5663 5660 5657 5653 5650
5754 5752 5750 5748 5746 5743 5741 5738 5736 5733 5730 5727 5725 5722 5720 5718 5715 5712 5709 5707 5704 5703 5701 5698 5695 5692 5690 5687 5684 5681 5677 5674 5671 5668 5665 5662 5659 5656 5653 5650 5647 5644 5640
5745 5743 5741 5739 5736 5734 5731 5729 5727 5724 5721 5718 5716 5713 5711 5708 5706 5704 5701 5699 5696 5694 5691 5689 5686 5683 5680 5677 5674 5671 5667 5664 5661 5658 5655 5652 5649 5646 5642 5639 5637 5634 5631